Location: Unspecified
(48.8656°N, 0.0000°E)
Time: 02:19:06
(UTC+00:00)

Altair - Pass Details

Date: 19 June 2019
Orbit: 1501 x 1683 km, 47.2° (Epoch: 15 July)

Event Time Altitude Azimuth Distance (km) Brightness Sun altitude
Rises 02:18:30 0° 288° (WNW) 4,862 10.0 -11.5°
Reaches altitude 10° 02:21:42 10° 284° (WNW) 3,894 9.4 -11.2°
Maximum altitude 02:31:14 52° 212° (SSW) 2,014 7.8 -10.3°
Drops below altitude 10° 02:40:54 10° 140° (SE) 3,939 9.5 -9.4°
Sets 02:44:10 0° 136° (SE) 4,921 10.1 -9.1°
